Location: Newark
(27.9675°N, 86.8869°E)
Time: 17:25:52
(UTC+00:00)

SR - Pass Details

Date: 21 October 2019
Orbit: 574 x 882 km, 66.7° (Epoch: 14 November)

Event Time Altitude Azimuth Distance (km) Brightness Sun altitude
Rises 14:04:34 0° 158° (SSE) 2,924 - -33.0°
Reaches altitude 10° 14:07:55 10° 132° (SE) 2,084 - -33.8°
Maximum altitude 14:10:10 13° 103° (ESE) 1,911 - -34.3°
Drops below altitude 10° 14:12:30 10° 74° (ENE) 2,184 - -34.8°
Sets 14:16:09 0° 49° (NE) 3,188 - -35.6°
